Weather History for Albert Lea, MN

Change the Weather History Date:

Sunday, October 14, 2012

  Actual Average Record
Temperature  
Mean Temperature 50 °F -  
Max Temperature 55 °F 58 °F 75 °F (2005)
Min Temperature 44 °F 37 °F 26 °F (2006)
Degree Days  
Heating Degree Days 16    
Moisture  
Dew Point 43 °F    
Average Humidity 82    
Maximum Humidity 100    
Minimum Humidity 51    
Precipitation  
Precipitation 0.00 in - - ()
Sea Level Pressure  
Sea Level Pressure 29.75 in    
Wind  
Wind Speed 12 mph (NNW)    
Max Wind Speed 21 mph    
Max Gust Speed 32 mph    
Visibility 7 miles    
Events Fog    
Averages and records for this station are not official NWS values.
T = Trace of Precipitation, MM = Missing Value Source: NWS Daily Summary

Daily Weather History Graph

Daily Weather History Graph

Search for Another Location

Airport:

Trip Planner

Search our weather history database for the weather conditions in past years. The results will help you decide how hot, cold, wet, or windy it might be!

Date:

Astronomy

Oct. 14, 2012 Rise Set
Actual Time 7:27 AM CDT 6:30 PM CDT
Civil Twilight 6:58 AM CDT 6:59 PM CDT
Nautical Twilight 6:24 AM CDT 7:32 PM CDT
Astronomical Twilight 5:51 AM CDT 8:06 PM CDT
Moon 6:26 AM CDT (10/14) 5:50 PM CDT (10/14)
Length of Visible Light 12h 01m
Length of Day
11h 03m
Waning Crescent, 1% of the Moon is Illuminated
Oct 14
Waning Crescent
Oct 15
New
Oct 21
First Quarter
Oct 29
Full
Nov 6
Last Quarter

Hourly Weather History & Observations

Time (CDT) Temp. Windchill Dew Point Humidity Pressure Visibility Wind Dir Wind Speed Gust Speed Precip Events Conditions
12:13 AM 55.4 °F - 53.6 °F 94% 29.67 in 5.0 mi NNE 9.2 mph - N/A   Overcast
12:32 AM 55.4 °F - 53.6 °F 94% 29.68 in 4.0 mi NNE 8.1 mph - N/A   Overcast
12:52 AM 53.6 °F - 53.6 °F 100% 29.68 in 4.0 mi NNE 8.1 mph - N/A   Overcast
1:13 AM 53.6 °F - 53.6 °F 100% 29.67 in 5.0 mi NNE 12.7 mph - N/A   Overcast
1:32 AM 53.6 °F - 53.6 °F 100% 29.65 in 2.0 mi NNE 13.8 mph - N/A   Overcast
1:52 AM 53.6 °F - 51.8 °F 94% 29.67 in 3.0 mi NNE 9.2 mph - N/A   Overcast
2:13 AM 51.8 °F - 51.8 °F 100% 29.68 in 2.0 mi NNE 12.7 mph - N/A   Overcast
2:32 AM 51.8 °F - 51.8 °F 100% 29.68 in 0.5 mi NNE 9.2 mph - N/A Fog Fog
2:52 AM 51.8 °F - 51.8 °F 100% 29.68 in 1.0 mi North 9.2 mph - N/A   Overcast
3:13 AM 51.8 °F - 51.8 °F 100% 29.67 in 2.0 mi North 10.4 mph - N/A   Overcast
3:32 AM 50.0 °F - 50.0 °F 100% 29.67 in 1.5 mi North 11.5 mph - N/A   Overcast
3:52 AM 50.0 °F - 50.0 °F 100% 29.68 in 1.8 mi North 10.4 mph - N/A   Light Drizzle
4:12 AM 48.2 °F - 48.2 °F 100% 29.68 in 2.5 mi North 11.5 mph - N/A   Overcast
4:32 AM 48.2 °F - 48.2 °F 100% 29.67 in 3.0 mi North 11.5 mph - N/A   Overcast
4:52 AM 48.2 °F - 48.2 °F 100% 29.67 in 1.0 mi North 12.7 mph - N/A   Overcast
5:12 AM 48.2 °F - 48.2 °F 100% 29.66 in 1.2 mi North 12.7 mph 16.1 mph N/A   Overcast
5:33 AM 46.4 °F 40.7 °F 46.4 °F 100% 29.66 in 1.8 mi North 12.7 mph 20.7 mph N/A   Overcast
5:52 AM 46.4 °F 41.5 °F 46.4 °F 100% 29.66 in 1.5 mi North 10.4 mph 20.7 mph N/A   Overcast
6:12 AM 46.4 °F 41.1 °F 46.4 °F 100% 29.67 in 1.5 mi North 11.5 mph 17.3 mph N/A   Overcast
6:33 AM 46.4 °F 40.4 °F 46.4 °F 100% 29.66 in 1.8 mi North 13.8 mph 19.6 mph N/A   Overcast
6:52 AM 46.4 °F 41.5 °F 46.4 °F 100% 29.67 in 3.0 mi NNW 10.4 mph 16.1 mph N/A   Overcast
7:12 AM 46.4 °F 40.7 °F 46.4 °F 100% 29.67 in 3.0 mi North 12.7 mph 23.0 mph N/A   Overcast
7:33 AM 46.4 °F 40.1 °F 46.4 °F 100% 29.67 in 3.0 mi North 15.0 mph 20.7 mph N/A   Overcast
7:52 AM 46.4 °F 39.8 °F 46.4 °F 100% 29.68 in 3.0 mi North 16.1 mph 21.9 mph N/A   Overcast
8:12 AM 46.4 °F 40.1 °F 46.4 °F 100% 29.68 in 2.0 mi North 15.0 mph 18.4 mph N/A   Overcast
8:33 AM 46.4 °F 39.8 °F 46.4 °F 100% 29.69 in 3.0 mi North 16.1 mph 21.9 mph N/A   Overcast
8:53 AM 44.6 °F 37.8 °F 44.6 °F 100% 29.70 in 5.0 mi North 15.0 mph 24.2 mph N/A   Overcast
9:12 AM 44.6 °F 36.6 °F 44.6 °F 100% 29.69 in 5.0 mi North 19.6 mph 28.8 mph N/A   Overcast
9:33 AM 44.6 °F 37.2 °F 44.6 °F 100% 29.70 in 5.0 mi North 17.3 mph 25.3 mph N/A   Overcast
9:53 AM 44.6 °F 37.4 °F 44.6 °F 100% 29.70 in 5.0 mi North 16.1 mph 24.2 mph N/A   Overcast
10:12 AM 44.6 °F 36.6 °F 44.6 °F 100% 29.70 in 5.0 mi North 19.6 mph 26.5 mph N/A   Overcast
10:33 AM 44.6 °F 36.4 °F 44.6 °F 100% 29.70 in 10.0 mi North 20.7 mph 28.8 mph N/A   Overcast
10:53 AM 44.6 °F 37.2 °F 44.6 °F 100% 29.71 in 10.0 mi North 17.3 mph 28.8 mph N/A   Overcast
11:12 AM 46.4 °F 38.7 °F 44.6 °F 93% 29.71 in 10.0 mi North 20.7 mph 27.6 mph N/A   Overcast
11:33 AM 46.4 °F 39.8 °F 44.6 °F 93% 29.72 in 10.0 mi NNW 16.1 mph 23.0 mph N/A   Overcast
11:53 AM 46.4 °F 39.8 °F 44.6 °F 93% 29.73 in 10.0 mi NNW 16.1 mph 27.6 mph N/A   Overcast
12:12 PM 48.2 °F - 44.6 °F 87% 29.73 in 10.0 mi NNW 18.4 mph 28.8 mph N/A   Mostly Cloudy
12:33 PM 51.8 °F - 44.6 °F 76% 29.74 in 10.0 mi NNW 13.8 mph 32.2 mph N/A   Scattered Clouds
12:52 PM 51.8 °F - 44.6 °F 76% 29.73 in 10.0 mi NNW 18.4 mph 27.6 mph N/A   Scattered Clouds
1:12 PM 53.6 °F - 42.8 °F 67% 29.73 in 10.0 mi NNW 19.6 mph 27.6 mph N/A   Scattered Clouds
1:33 PM 53.6 °F - 42.8 °F 67% 29.74 in 10.0 mi NNW 13.8 mph 32.2 mph N/A   Scattered Clouds
1:52 PM 55.4 °F - 42.8 °F 63% 29.74 in 10.0 mi NNW 16.1 mph 28.8 mph N/A   Scattered Clouds
2:13 PM 55.4 °F - 41.0 °F 58% 29.74 in 10.0 mi NNW 18.4 mph 26.5 mph N/A   Clear
2:33 PM 55.4 °F - 41.0 °F 58% 29.74 in 10.0 mi North 17.3 mph 28.8 mph N/A   Clear
3:12 PM 55.4 °F - 39.2 °F 54% 29.76 in 10.0 mi NNW 17.3 mph 28.8 mph N/A   Clear
3:33 PM 55.4 °F - 39.2 °F 54% 29.76 in 10.0 mi NNW 17.3 mph 25.3 mph N/A   Clear
3:52 PM 55.4 °F - 39.2 °F 54% 29.77 in 10.0 mi NNW 18.4 mph 24.2 mph N/A   Clear
4:12 PM 55.4 °F - 37.4 °F 51% 29.78 in 10.0 mi NW 15.0 mph 25.3 mph N/A   Clear
4:32 PM 55.4 °F - 37.4 °F 51% 29.78 in 10.0 mi NNW 16.1 mph 24.2 mph N/A   Clear
4:53 PM 55.4 °F - 37.4 °F 51% 29.79 in 10.0 mi NNW 13.8 mph 24.2 mph N/A   Clear
5:12 PM 55.4 °F - 37.4 °F 51% 29.80 in 10.0 mi NNW 13.8 mph 24.2 mph N/A   Clear
5:32 PM 55.4 °F - 37.4 °F 51% 29.81 in 10.0 mi NNW 12.7 mph 19.6 mph N/A   Clear
5:53 PM 53.6 °F - 37.4 °F 54% 29.82 in 10.0 mi NNW 11.5 mph 20.7 mph N/A   Clear
6:12 PM 53.6 °F - 37.4 °F 54% 29.82 in 10.0 mi NNW 9.2 mph - N/A   Clear
6:32 PM 51.8 °F - 37.4 °F 58% 29.82 in 10.0 mi NNW 8.1 mph - N/A   Clear
6:52 PM 51.8 °F - 37.4 °F 58% 29.83 in 10.0 mi NNW 6.9 mph - N/A   Clear
7:12 PM 50.0 °F - 35.6 °F 58% 29.84 in 10.0 mi NW 5.8 mph - N/A   Clear
7:33 PM 50.0 °F - 35.6 °F 58% 29.85 in 10.0 mi NW 6.9 mph - N/A   Clear
7:52 PM 48.2 °F - 35.6 °F 62% 29.85 in 10.0 mi NW 4.6 mph - N/A   Clear
8:12 PM 48.2 °F - 35.6 °F 62% 29.85 in 10.0 mi NW 3.5 mph - N/A   Clear
8:32 PM 46.4 °F - 35.6 °F 66% 29.86 in 10.0 mi Calm Calm - N/A   Clear
8:52 PM 46.4 °F 44.3 °F 35.6 °F 66% 29.86 in 10.0 mi WNW 4.6 mph - N/A   Clear
9:12 PM 44.6 °F 43.1 °F 37.4 °F 76% 29.87 in 10.0 mi WNW 3.5 mph - N/A   Mostly Cloudy
9:32 PM 46.4 °F 44.3 °F 37.4 °F 71% 29.87 in 10.0 mi WNW 4.6 mph - N/A   Overcast
9:53 PM 48.2 °F - 37.4 °F 66% 29.87 in 10.0 mi West 3.5 mph - N/A   Mostly Cloudy
10:12 PM 46.4 °F 43.5 °F 37.4 °F 71% 29.88 in 10.0 mi West 5.8 mph - N/A   Scattered Clouds
10:32 PM 44.6 °F 41.4 °F 37.4 °F 76% 29.88 in 10.0 mi WNW 5.8 mph - N/A   Clear
10:53 PM 44.6 °F 41.4 °F 37.4 °F 76% 29.88 in 10.0 mi WNW 5.8 mph - N/A   Clear
11:12 PM 44.6 °F 43.1 °F 37.4 °F 76% 29.89 in 10.0 mi West 3.5 mph - N/A   Clear
11:32 PM 44.6 °F 40.7 °F 37.4 °F 76% 29.89 in 10.0 mi WNW 6.9 mph - N/A   Mostly Cloudy
11:53 PM 44.6 °F 41.4 °F 37.4 °F 76% 29.89 in 10.0 mi WNW 5.8 mph - N/A   Mostly Cloudy